Total_Precipitation_Accumulation
0.17 0.36 0.64 0.63 0.63 0.27 0.04 0.04 0.05 0.07 0.10 0.09 0.07 0.07 0.10 0.18 0.35 0.50 0.29 0.17 0.09 0.08 0.08 0.17 0.26 0.22 0.19 0.21 0.30 0.37 0.39 0.42 0.46 0.48 0.47 0.26 0.14 0.14 0.15 0.17 0.20 0.21 0.18 0.19 0.26 0.32 0.30 0.25 0.29
0.23 0.63 0.92 0.90 0.61 0.08 0.05 0.08 0.12 0.13 0.10 0.09 0.05 0.05 0.07 0.07 0.07 0.20 0.34 0.29 0.14 0.14 0.15 0.23 0.32 0.30 0.25 0.26 0.37 0.45 0.50 0.54 0.60 0.58 0.41 0.18 0.13 0.15 0.17 0.21 0.25 0.20 0.14 0.14 0.18 0.24 0.25 0.22 0.28
0.33 0.55 0.81 0.89 0.28 0.11 0.13 0.17 0.22 0.16 0.09 0.08 0.05 0.04 0.06 0.13 0.16 0.24 0.36 0.24 0.17 0.17 0.23 0.41 0.46 0.41 0.36 0.37 0.45 0.56 0.63 0.60 0.65 0.59 0.33 0.17 0.14 0.15 0.19 0.26 0.22 0.15 0.12 0.10 0.11 0.16 0.17 0.17 0.18
0.40 0.59 0.78 0.52 0.23 0.23 0.24 0.27 0.18 0.13 0.07 0.04 0.04 0.05 0.09 0.17 0.23 0.26 0.30 0.28 0.24 0.21 0.25 0.38 0.47 0.44 0.43 0.48 0.56 0.57 0.52 0.51 0.58 0.50 0.34 0.20 0.19 0.19 0.21 0.19 0.13 0.10 0.10 0.08 0.07 0.10 0.12 0.13 0.13
0.38 0.69 0.74 0.42 0.30 0.33 0.24 0.20 0.11 0.07 0.07 0.05 0.03 0.08 0.12 0.18 0.28 0.36 0.43 0.44 0.38 0.34 0.30 0.37 0.45 0.42 0.41 0.49 0.57 0.59 0.50 0.52 0.55 0.52 0.44 0.27 0.23 0.23 0.23 0.15 0.11 0.09 0.08 0.08 0.06 0.06 0.07 0.08 0.11
0.54 0.87 0.86 0.59 0.35 0.32 0.27 0.19 0.12 0.09 0.07 0.08 0.08 0.11 0.16 0.22 0.33 0.45 0.49 0.53 0.54 0.51 0.44 0.41 0.48 0.46 0.45 0.50 0.56 0.59 0.57 0.63 0.60 0.48 0.42 0.38 0.28 0.26 0.20 0.14 0.12 0.09 0.09 0.10 0.06 0.05 0.06 0.07 0.11
0.68 0.92 0.83 0.51 0.39 0.41 0.33 0.20 0.12 0.10 0.08 0.09 0.12 0.15 0.18 0.24 0.33 0.41 0.48 0.56 0.61 0.61 0.58 0.52 0.52 0.52 0.54 0.60 0.60 0.63 0.68 0.77 0.72 0.51 0.43 0.44 0.31 0.22 0.17 0.14 0.11 0.09 0.10 0.10 0.06 0.04 0.05 0.08 0.12
0.41 0.70 0.89 0.74 0.55 0.51 0.26 0.11 0.07 0.05 0.05 0.06 0.08 0.12 0.20 0.26 0.32 0.45 0.53 0.61 0.64 0.62 0.61 0.55 0.55 0.58 0.60 0.66 0.70 0.71 0.70 0.76 0.73 0.57 0.51 0.50 0.34 0.22 0.17 0.15 0.14 0.12 0.12 0.14 0.10 0.06 0.07 0.08 0.10
0.34 0.55 0.91 0.96 0.59 0.44 0.23 0.13 0.07 0.05 0.05 0.05 0.06 0.08 0.15 0.20 0.26 0.39 0.50 0.54 0.57 0.57 0.59 0.56 0.54 0.58 0.64 0.72 0.75 0.83 0.83 0.86 0.78 0.68 0.63 0.52 0.37 0.30 0.23 0.14 0.15 0.15 0.18 0.18 0.14 0.11 0.08 0.06 0.07
0.40 0.58 0.76 0.66 0.40 0.29 0.23 0.19 0.11 0.10 0.10 0.08 0.09 0.13 0.21 0.29 0.34 0.44 0.49 0.56 0.57 0.60 0.63 0.61 0.64 0.62 0.63 0.67 0.91 1.07 0.94 0.85 0.74 0.76 0.69 0.59 0.52 0.49 0.30 0.21 0.23 0.21 0.23 0.23 0.19 0.17 0.10 0.04 0.02
0.33 0.40 0.41 0.41 0.29 0.20 0.16 0.15 0.15 0.14 0.14 0.13 0.15 0.18 0.25 0.35 0.39 0.42 0.48 0.56 0.61 0.62 0.64 0.60 0.58 0.53 0.54 0.69 0.86 1.04 1.09 1.05 1.02 0.87 0.84 0.76 0.63 0.46 0.30 0.26 0.26 0.23 0.24 0.22 0.19 0.17 0.11 0.07 0.04
0.31 0.28 0.29 0.30 0.21 0.19 0.16 0.14 0.16 0.15 0.16 0.16 0.19 0.23 0.26 0.34 0.40 0.44 0.49 0.52 0.52 0.54 0.58 0.55 0.53 0.50 0.49 0.50 0.60 0.75 0.81 0.80 0.81 0.82 0.75 0.74 0.71 0.60 0.43 0.35 0.37 0.34 0.27 0.25 0.25 0.21 0.16 0.12 0.06
0.31 0.23 0.20 0.21 0.20 0.20 0.18 0.17 0.17 0.17 0.16 0.17 0.23 0.29 0.33 0.36 0.40 0.43 0.43 0.46 0.47 0.48 0.51 0.55 0.57 0.55 0.61 0.60 0.57 0.55 0.61 0.66 0.70 0.77 0.69 0.62 0.61 0.62 0.58 0.45 0.46 0.39 0.30 0.30 0.30 0.21 0.17 0.16 0.08
0.27 0.19 0.21 0.22 0.22 0.20 0.20 0.20 0.19 0.20 0.18 0.19 0.25 0.32 0.37 0.40 0.39 0.39 0.39 0.37 0.37 0.46 0.57 0.62 0.58 0.61 0.60 0.56 0.59 0.62 0.62 0.65 0.67 0.70 0.63 0.56 0.53 0.53 0.61 0.54 0.53 0.43 0.42 0.44 0.33 0.26 0.24 0.21 0.11
0.17 0.19 0.24 0.23 0.23 0.23 0.23 0.22 0.19 0.21 0.20 0.23 0.27 0.33 0.38 0.41 0.41 0.42 0.42 0.38 0.36 0.43 0.57 0.68 0.66 0.69 0.65 0.60 0.62 0.66 0.65 0.62 0.64 0.68 0.60 0.54 0.55 0.54 0.64 0.63 0.57 0.52 0.54 0.53 0.49 0.44 0.32 0.23 0.14
0.22 0.32 0.42 0.30 0.27 0.28 0.28 0.30 0.26 0.28 0.26 0.25 0.26 0.29 0.33 0.35 0.37 0.39 0.40 0.39 0.37 0.40 0.51 0.63 0.65 0.70 0.73 0.72 0.72 0.69 0.64 0.66 0.70 0.73 0.68 0.62 0.59 0.62 0.78 0.80 0.66 0.65 0.67 0.65 0.65 0.57 0.44 0.32 0.24
0.30 0.39 0.40 0.31 0.28 0.29 0.29 0.29 0.26 0.27 0.26 0.24 0.22 0.21 0.22 0.25 0.30 0.34 0.34 0.35 0.36 0.40 0.47 0.52 0.58 0.77 0.81 0.77 0.83 0.83 0.79 0.85 0.88 0.90 0.86 0.80 0.75 0.82 0.97 1.03 0.92 0.85 0.89 0.80 0.69 0.65 0.62 0.49 0.42
0.25 0.21 0.24 0.25 0.22 0.22 0.26 0.24 0.22 0.24 0.22 0.21 0.20 0.19 0.17 0.19 0.24 0.26 0.25 0.26 0.28 0.34 0.39 0.46 0.54 0.67 0.78 0.93 1.01 1.09 1.10 1.10 1.20 1.27 1.25 1.08 1.01 1.06 1.19 1.28 1.24 1.16 1.18 1.11 0.93 0.92 0.88 0.76 0.70
0.16 0.13 0.14 0.19 0.17 0.16 0.19 0.20 0.19 0.19 0.19 0.16 0.15 0.14 0.13 0.12 0.14 0.14 0.13 0.17 0.20 0.25 0.30 0.37 0.53 0.68 0.83 0.96 1.10 1.36 1.52 1.62 1.59 1.60 1.67 1.58 1.38 1.44 1.53 1.48 1.69 1.73 1.66 1.60 1.48 1.46 1.40 1.13 0.88
0.11 0.11 0.12 0.14 0.12 0.12 0.12 0.12 0.12 0.12 0.14 0.13 0.13 0.12 0.10 0.08 0.07 0.06 0.07 0.09 0.12 0.15 0.22 0.29 0.44 0.66 0.89 1.11 1.30 1.50 1.81 1.95 1.95 2.01 1.96 1.90 1.79 1.78 1.70 1.73 1.92 1.96 2.03 2.09 1.86 1.86 1.84 1.52 1.15
0.09 0.10 0.10 0.11 0.10 0.08 0.08 0.09 0.09 0.10 0.10 0.10 0.10 0.10 0.09 0.07 0.07 0.06 0.05 0.06 0.07 0.09 0.14 0.21 0.34 0.56 0.86 1.16 1.41 1.60 1.83 2.09 2.19 2.09 2.04 2.07 2.15 2.17 2.05 2.00 2.08 2.09 2.13 2.26 2.26 2.14 2.12 1.98 1.63
0.10 0.09 0.08 0.08 0.10 0.10 0.10 0.15 0.15 0.14 0.14 0.13 0.12 0.13 0.12 0.11 0.10 0.08 0.06 0.06 0.07 0.10 0.13 0.17 0.32 0.47 0.71 0.98 1.29 1.53 1.79 2.09 2.15 2.13 2.11 2.14 2.24 2.32 2.27 2.23 2.26 2.23 2.15 2.21 2.28 2.24 2.33 2.42 2.10
0.05 0.04 0.05 0.06 0.09 0.09 0.09 0.16 0.17 0.16 0.19 0.20 0.20 0.21 0.18 0.15 0.15 0.12 0.10 0.10 0.12 0.15 0.18 0.24 0.38 0.53 0.73 0.97 1.29 1.58 1.77 1.92 2.09 2.11 2.04 1.96 1.99 2.00 1.99 2.11 2.23 2.21 2.18 2.16 2.31 2.40 2.51 2.42 2.29
0.02 0.02 0.04 0.04 0.06 0.06 0.05 0.14 0.23 0.23 0.22 0.20 0.22 0.22 0.17 0.14 0.14 0.17 0.21 0.22 0.22 0.24 0.30 0.37 0.50 0.71 0.86 0.96 1.10 1.24 1.46 1.74 1.86 1.95 1.98 1.97 1.90 1.77 1.73 1.83 1.92 2.00 2.03 2.02 2.04 2.16 2.27 2.35 2.41
0.01 0.05 0.09 0.10 0.13 0.12 0.10 0.20 0.31 0.27 0.22 0.21 0.22 0.20 0.19 0.21 0.25 0.33 0.43 0.40 0.37 0.40 0.49 0.56 0.63 0.73 0.78 0.78 0.86 0.97 1.13 1.33 1.47 1.56 1.74 1.78 1.77 1.69 1.66 1.63 1.71 1.79 1.81 1.90 2.03 1.98 1.97 2.09 2.21
0.01 0.05 0.12 0.16 0.18 0.21 0.26 0.40 0.44 0.35 0.28 0.24 0.21 0.19 0.21 0.29 0.39 0.54 0.65 0.70 0.64 0.62 0.64 0.62 0.62 0.60 0.61 0.66 0.72 0.78 0.84 0.97 1.07 1.16 1.32 1.43 1.41 1.35 1.32 1.35 1.45 1.62 1.70 1.78 1.87 1.87 1.84 1.85 1.86
0.02 0.03 0.06 0.14 0.15 0.21 0.34 0.51 0.51 0.35 0.29 0.27 0.26 0.23 0.29 0.42 0.57 0.73 0.86 0.93 0.87 0.78 0.72 0.68 0.68 0.65 0.58 0.60 0.68 0.73 0.77 0.78 0.81 0.85 0.85 0.93 1.01 1.01 1.03 1.07 1.19 1.36 1.49 1.53 1.59 1.69 1.71 1.70 1.67
0.02 0.04 0.10 0.22 0.33 0.36 0.39 0.52 0.60 0.49 0.38 0.36 0.38 0.44 0.55 0.73 0.80 0.91 0.98 0.97 0.96 1.00 0.93 0.77 0.71 0.71 0.66 0.73 0.74 0.71 0.69 0.67 0.65 0.67 0.72 0.73 0.82 0.92 0.97 0.98 1.01 1.10 1.21 1.31 1.42 1.51 1.57 1.53 1.48
0.09 0.13 0.20 0.32 0.42 0.56 0.68 0.82 0.69 0.57 0.56 0.54 0.56 0.72 0.82 0.92 1.00 1.02 1.08 1.01 0.89 0.89 0.87 0.84 0.79 0.73 0.75 0.79 0.80 0.70 0.66 0.66 0.65 0.61 0.62 0.68 0.77 0.89 0.92 0.96 0.99 0.99 1.08 1.12 1.20 1.30 1.41 1.39 1.36
0.23 0.35 0.45 0.61 0.65 0.63 0.86 1.06 0.78 0.64 0.65 0.66 0.65 0.63 0.65 0.83 0.94 0.98 1.04 0.97 0.81 0.77 0.68 0.71 0.79 0.79 0.85 0.86 0.79 0.71 0.70 0.73 0.77 0.75 0.66 0.65 0.70 0.73 0.82 0.91 0.90 0.89 0.95 1.01 1.10 1.20 1.25 1.26 1.19